Regional Weather Roundup
Issued by NWS Upton, NY

Home | Current Version | Previous Version | Text Only | Print | Product List | Glossary On
Versions: 1 2 3 4 5 6 7 8 9 10 11 12 13 14 15 16 17 18 19 20 21 22 23 24 25 26 27 28 29 30 31 32 33 34 35 36 37 38 39 40 41 42 43 44 45 46
000
ASUS41 KOKX 040404
RWROKX

REGIONAL WEATHER ROUNDUP
NATIONAL WEATHER SERVICE NEW YORK NY
1200 AM EDT TUE AUG 04 2015

NOTE: "FAIR" INDICATES FEW OR NO CLOUDS BELOW 12,000 FEET WITH NO
SIGNIFICANT WEATHER AND/OR OBSTRUCTIONS TO VISIBILITY.

NYZ071-072-176-178-NJZ106-104-040500-
NEW YORK CITY METRO AREA


CITY           SKY/WX    TMP DP  RH WIND       PRES   REMARKS
CENTRAL PARK   PTCLDY    83  60  45 CALM      29.84S
LAGUARDIA APRT PTCLDY    84  60  44 SW10      29.80F
KENNEDY INTL   PTCLDY    77  70  79 S10       29.82F
NEWARK/LIBERTY MOCLDY    82  62  50 SW7       29.80F
BRNX BOT. GARD   N/A     82  61  47 W8        29.81F
TETERBORO      PTCLDY    81  59  47 SW6       29.79F
$$

NYZ177-179-078>081-040500-
LONG ISLAND NEW YORK

CITY           SKY/WX    TMP DP  RH WIND       PRES   REMARKS
FARMINGDALE    CLEAR     77  71  82 SW10      29.83R
ISLIP          PTCLDY    77  73  87 SW10      29.81S
SHIRLEY        MOCLDY    77  75  93 S12       29.84R
WESTHAMPTON    CLOUDY    78  75  90 SW10G22   29.85R
MONTAUK POINT    N/A     77  74  90 S13G21    29.85R
$$

NYZ052-065-067-040500-
HUDSON VALLEY

CITY           SKY/WX    TMP DP  RH WIND       PRES   REMARKS
WHITE PLAINS   PTCLDY    76  61  59 CALM      29.82S
NEWBURGH       CLEAR     75  64  69 W7        29.83S
MONTGOMERY     PTCLDY    72  64  76 CALM      29.80F
POUGHKEEPSIE   PTCLDY    72  63  73 CALM      29.79S
ALBANY         MOCLDY    68  65  90 CALM      29.81S
$$

NJZ001-105-106-008-010-013-015-019>022-104-040500-
NEW JERSEY

CITY           SKY/WX    TMP DP  RH WIND       PRES   REMARKS
NEWARK/LIBERTY MOCLDY    82  62  50 SW7       29.80F
TETERBORO      PTCLDY    81  59  47 SW6       29.79F
CALDWELL       PTCLDY    78  60  53 W3        29.81S
MORRISTOWN     PTCLDY    75  61  60 CALM      29.82
SOMERVILLE     PTCLDY    71  63  75 CALM      29.80S
SUSSEX         PTCLDY    69  64  84 CALM      29.83R
ANDOVER          N/A     73  64  73 SW8       29.85R
TRENTON        PTCLDY    78  66  66 S8        29.81F
MILLVILLE      CLEAR     79  72  79 VRB3      29.84F
ATLANTIC CITY  CLEAR     79  74  84 S10       29.85S
WRIGHTSTOWN    CLEAR     74  68  80 S6        29.80F
TOMS RIVER       N/A     75  72  88 S7        29.84S
BELMAR         CLEAR     75  66  73 S6        29.84S
$$

PAZ047>061-062-071-040500-
EASTERN PENNSYLVANIA

CITY           SKY/WX    TMP DP  RH WIND       PRES   REMARKS
PHILADELPHIA   PTCLDY    80  69  69 S7        29.82F
ALLENTOWN      MOCLDY    70  66  87 NW5       29.82S
SCRANTON       CLOUDY    71  66  84 SE3       29.82F
$$

CTZ002-004>006-009-010-012-RIZ004-006-007-MAZ004-011-015-040500-
SOUTHERN NEW ENGLAND
 IN CT

CITY           SKY/WX    TMP DP  RH WIND       PRES   REMARKS
BRADLEY INTL   PTCLDY    76  69  79 S6        29.80R
HARTFORD       CLEAR     76  70  82 S5        29.80S
DANBURY        PTCLDY    73  63  70 CALM      29.83S
WTRBRY/OXFORD  CLEAR     73  64  73 CALM      29.85S
BRIDGEPORT     CLEAR     77  72  84 SW7       29.81R
MERIDEN        CLEAR     75  69  81 S5        29.81S
NEW HAVEN      PTCLDY    75  71  87 S5        29.82R
CHESTER        FAIR      73  73 100 S6        29.84S
GROTON         CLOUDY    74  72  93 W7        29.82S
WILLIMANTIC    PTCLDY    74  70  87 SE6       29.82S

 IN RI

CITY           SKY/WX    TMP DP  RH WIND       PRES   REMARKS
PROVIDENCE     PTCLDY    76  71  85 SW10      29.83S
BLOCK ISLAND     N/A     73  73 100 SW13G18   29.86R
WESTERLY       CLOUDY    75  72  90 SW10G20   29.84S

 IN MA

CITY           SKY/WX    TMP DP  RH WIND       PRES   REMARKS
BOSTON         NOT AVBL
WORCESTER      CLEAR     71  67  87 SW9       29.84S
WESTFIELD      CLEAR     73  66  78 S5        29.80S
PROVINCETOWN   PTCLDY    73  64  73 SW13      29.84S
NANTUCKET      PTCLDY    74  71  91 SW13      29.87S
$$

ANZ330-335-338-340-345-350-353-355-040500-
COASTAL MARINE OBSERVATIONS


STATION/POSITION TIME  SKY/WX   TEMP    WIND        PRES    VSBY  WAVE
                                AIR SEA DIR/SP/G                  HT/PER
                 (UTC)          (F)     (DEG/KT/KT) (MB)    (MI)  (FT/S)
NY HARB ENTRANCE 0250            77 76  210/ 17/ 19 1009.3          4/ 6
4S FIRE IS       NOT AVBL
20S FIRE ISLAND  0250            78 76  220/ 17/ 19 1009.8          4/ 6
GREAT SOUTH BAY  0300            78 81  230/ 17/ 21   N/A
23SW MTP         0350            77 75  220/ 17/ 23 1010.0          5/ 5
HUDSON CANYON    NOT AVBL
KINGS POINT      0300            81 73  220/  8/ 10 1008.8
EXECUTION ROCKS  0300            77     200/  4/  6   N/A
CENTRAL LI SOUND NOT AVBL
EASTERN LI SOUND 0300            74 69  210/ 14/ 17   N/A
ROBBINS REEF     0300            83     210/ 12/ 13 1008.3
$$


>>>>>>>>>>>>>>>>>>>>>>>>>>>> KEY <<<<<<<<<<<<<<<<<<<<<<<<<<<
>                                                          <
>     SKY/WX - SKY CONDITION/PRESENT WEATHER               <
>     TMP    - TEMPERATURE IN FAHRENHEIT                   <
>     DP     - DEWPOINT IN FAHRENHEIT                      <
>     RH     - RELATIVE HUMIDITY IN PERCENT                <
>     WIND   - DIRECTION AND SPEED IN MPH                  <
>     PRES   - MEAN SEA LEVEL PRESSURE IN INCHES OF HG     <
>     WCI    - WIND CHILL INDEX                            <
>     VSB    - VISIBILITY IN MILES                         <
>     HX     - HEAT INDEX                                  <
>     TC     - TEMPERATURE IN CELSIUS                      <
>     VRB    - VARIABLE WIND DIRECTION                     <
>                                                          <
>>>>>>>>>>>>>>>>>>>>>>>>>>>> KEY <<<<<<<<<<<<<<<<<<<<<<<<<<<




USA.gov is the U.S. government's official web portal to all federal, state and local government web resources and services.